[[{"header":{"parameterUnit":"m.s-1","parameterCategory":1,"la1":30.2991,"la2":30.254,"lo1":-89.0895,"lo2":-89.0444,"dy":0.0017,"dx":0.0017,"nx":28,"ny":28,"refTime":"2024-04-04T03:00:00:Z","depth":0,"parameterNumber":2,"parameterNumberName":"U-component_of_WINDS"},"data":[0,0,0,0,0,0,0,0,0,0,0,0,0,0,0,0,0,0,0,0,0,0,0,0,0,0,0,0,0,0,0,0,0,0,0,0,0,0,0,0,0,0,0,0,0,0,0,0,0,0,0,0,0,0,0,0,0,0,3.3305,3.3306,0,3.3444,3.3446,3.3447,3.341,3.3407,3.3404,3.3401,3.3549,3.3555,3.3561,0,0,0,0,0,0,0,0,0,0,0,0,0,3.301,3.3016,3.3304,3.3306,3.3308,3.3444,3.3446,3.3448,3.341,3.3407,3.3403,3.34,3.3546,3.3554,3.3562,0,0,0,0,0,0,0,0,0,0,0,0,0,3.3143,3.3018,3.3304,3.3305,3.3307,3.3444,3.3446,3.3448,3.3411,3.3407,3.3402,3.3398,3.3544,3.3553,3.3563,3.3708,0,0,3.3593,3.3597,0,0,0,0,0,0,0,0,3.3135,3.3154,3.3304,3.3306,3.3307,3.3405,3.3396,3.3536,3.3412,3.3372,3.3401,3.3396,3.3505,3.3517,3.3553,3.3715,3.3721,3.3594,3.36,3.3604,3.3607,0,0,0,0,0,0,0,3.3126,3.3147,3.336,3.3306,3.3308,3.3301,3.3315,3.3422,3.346,3.3375,3.3372,3.3389,3.3505,3.3543,3.3556,3.3724,3.3594,3.3602,3.3608,3.3612,3.4014,3.4019,0,0,0,0,0,0,3.3115,3.314,3.3355,3.3364,3.3209,3.3309,3.3325,3.3378,3.3459,3.3467,3.3393,3.3387,3.3529,3.3545,3.3561,3.3738,3.3604,3.3613,3.3619,3.401,3.4016,3.4021,0,0,0,0,0,0,3.3109,3.3134,3.335,3.3252,3.3278,3.3319,3.3379,3.3383,3.3422,3.3472,3.3479,3.3425,3.3526,3.3547,3.3672,3.3742,3.3618,3.3627,3.4004,3.4012,3.4018,3.4091,0,0,0,0,0,0,3.31,3.3132,3.3187,3.3253,3.3284,3.3457,3.3383,3.3389,3.3438,3.3432,3.3504,3.3512,3.3524,3.3658,3.3682,3.3754,3.3634,3.3998,3.4007,3.4016,3.4083,3.41,3.4115,0,0,0,0,0,3.309,3.3202,3.3189,3.3216,3.3352,3.3461,3.3479,3.3489,3.3444,3.35,3.3533,3.351,3.3731,3.3671,3.3698,3.3773,3.3994,3.4005,3.4015,3.4076,3.4097,3.4115,0,0,0,0,0,0,3.3144,3.3211,3.3197,3.3334,3.3392,3.3454,3.3525,3.3511,3.3584,3.3575,3.3586,3.3603,3.3731,3.3765,3.3697,3.3919,3.3856,3.3873,3.3893,3.3913,3.3929,3.3918,3.3642,0,0,0,0,0,3.3171,3.3253,3.3307,3.3423,3.3453,3.3484,3.3532,3.3535,3.3596,3.3621,3.3663,3.3724,3.3807,3.3862,3.3941,3.4088,3.4104,3.4153,3.4169,3.4182,3.4197,3.4279,3.4302,3.4056,3.4056,3.4056,0,0,3.323,3.3276,3.3327,3.3435,3.348,3.3566,3.3505,3.3598,3.3662,3.3635,3.3756,3.3789,3.3858,3.3995,3.4057,3.4027,3.4268,3.4196,3.4206,3.4213,3.4292,3.4315,3.4336,3.4064,3.4062,3.4061,0,0,3.3379,3.3422,3.3524,3.3571,3.364,3.366,3.3685,3.375,3.3771,3.3891,3.3873,3.3951,3.4094,3.4145,3.4189,3.4361,3.4344,3.4386,3.447,3.455,3.457,3.4587,3.4649,3.4672,3.4401,3.4401,3.4401,0,3.3443,3.357,3.3578,3.3673,3.3722,3.3701,3.3805,3.3851,3.3943,3.3978,3.3942,3.4122,3.4167,3.4317,3.4359,3.4395,3.4425,3.4378,3.4566,3.4583,3.46,3.4659,3.4683,3.4406,3.4405,3.4405,3.4404,0,3.3646,3.3735,3.3809,3.3898,3.3955,3.4054,3.4079,3.4136,3.4135,3.416,3.4285,3.4338,3.4429,3.4465,3.4465,3.4615,3.4594,3.4562,3.4499,3.4628,3.4684,3.4707,3.4413,3.4411,3.4409,3.4408,0,0,3.3833,3.3926,3.3953,3.3994,3.4069,3.4139,3.4239,3.4326,3.4376,3.4441,3.4526,3.4648,3.462,3.467,3.4676,3.4746,3.488,3.4706,3.4708,3.4737,3.5052,3.5076,3.5102,3.4869,3.4874,3.4877,3.5046,0,3.3991,3.4164,3.4175,3.4332,3.4415,3.4397,3.4484,3.4541,3.4568,3.4644,3.4674,3.4761,3.4715,3.4746,3.4815,3.4849,3.4944,3.4837,3.495,3.4954,3.4934,3.5131,3.5156,3.5313,3.5068,3.5072,3.5075,0,3.4197,3.4268,3.4433,3.4499,3.4534,3.4612,3.4694,3.4766,3.4831,3.4846,3.4903,3.49,3.5004,3.4937,3.5082,3.5009,3.5056,3.5081,3.5087,3.5099,3.5022,3.5149,3.5363,3.5387,3.5109,3.5107,3.5104,0,3.4318,3.4455,3.4572,3.4607,3.4686,3.4742,3.4778,3.4838,3.4891,3.4964,3.4998,3.5083,3.5129,3.5195,3.5216,3.5164,3.5361,3.5295,3.5378,3.5377,3.542,3.5417,3.5646,3.5449,3.5449,3.5448,3.5448,0,3.4493,3.4596,3.4628,3.47,3.4815,3.4827,3.4942,3.4974,3.5029,3.5109,3.5099,3.5174,3.5196,3.5276,3.5293,3.5411,3.5432,3.5448,3.5452,3.545,3.5448,3.5481,3.5471,3.5455,3.5453,3.5452,3.5451,0,3.4648,3.4673,3.48,3.4865,3.4883,3.4966,3.5022,3.5092,3.5118,3.5219,3.5244,3.5284,3.5378,3.5405,3.5518,3.5529,3.5669,3.5662,3.5646,3.5647,3.5729,3.5721,3.5987,3.6023,3.5802,3.5804,3.5806,0,3.4758,3.4837,3.491,3.4962,3.5,3.5084,3.5137,3.5154,3.521,3.5291,3.5353,3.5445,3.552,3.5672,3.5712,3.5799,3.5795,3.5882,3.5808,3.5804,3.5798,3.5793,3.5802,3.5896,3.5899,3.5901,3.5902,0,3.4952,3.4961,3.5038,3.512,3.5184,3.525,3.5313,3.5357,3.5382,3.5447,3.5542,3.56,3.5716,3.5808,3.5897,3.5936,3.5925,3.5925,3.5949,3.5948,3.5937,3.5945,3.5686,3.5919,3.5918,3.5916,3.5915,3.5915,3.5089,3.5158,3.5221,3.5307,3.5356,3.5416,3.5486,3.552,3.5599,3.5694,3.5699,3.5803,3.5869,3.5986,3.603,3.6113,3.6087,3.6122,3.6131,3.6139,3.6146,3.5923,3.6129,3.6128,3.6128,3.6128,3.6127,0,3.5283,3.5322,3.5402,3.549,3.5559,3.5541,3.5611,3.567,3.5761,3.5822,3.5896,3.6007,3.6097,3.6146,3.6236,3.6293,3.6291,3.6317,3.6313,3.6323,3.6163,3.6134,3.6318,3.6318,3.6318,3.6317,3.6317,3.6317,3.5392,3.5509,3.5526,3.5668,3.5707,3.5807,3.5849,3.5905,3.5954,3.6078,3.6152,3.6183,3.624,3.6335,3.6417,3.643,3.6464,3.6493,3.6503,3.6353,3.6334,3.6315,3.6288,3.65,3.6501,3.6655,3.6657,3.6658]},{"header":{"parameterUnit":"m.s-1","parameterCategory":1,"la1":30.2991,"la2":30.254,"lo1":-89.0895,"lo2":-89.0444,"dy":0.0017,"dx":0.0017,"nx":28,"ny":28,"refTime":"2024-04-04T03:00:00:Z","depth":0,"parameterNumber":3,"parameterNumberName":"V-component_of_WINDS"},"data":[0,0,0,0,0,0,0,0,0,0,0,0,0,0,0,0,0,0,0,0,0,0,0,0,0,0,0,0,0,0,0,0,0,0,0,0,0,0,0,0,0,0,0,0,0,0,0,0,0,0,0,0,0,0,0,0,0,0,-0.7291,-0.7293,0,-0.7409,-0.741,-0.7411,-0.7452,-0.7452,-0.7451,-0.7451,-0.7574,-0.7577,-0.7581,0,0,0,0,0,0,0,0,0,0,0,0,0,-0.7106,-0.7109,-0.7291,-0.7293,-0.7294,-0.7408,-0.741,-0.7412,-0.7452,-0.7452,-0.7451,-0.7451,-0.7573,-0.7577,-0.7581,0,0,0,0,0,0,0,0,0,0,0,0,0,-0.7201,-0.711,-0.7291,-0.7328,-0.7333,-0.7408,-0.741,-0.7412,-0.7452,-0.7452,-0.7451,-0.745,-0.7571,-0.7576,-0.7582,-0.763,0,0,-0.7599,-0.7601,0,0,0,0,0,0,0,0,-0.7196,-0.7208,-0.7321,-0.7326,-0.7331,-0.7415,-0.739,-0.7485,-0.7453,-0.7407,-0.7451,-0.745,-0.7522,-0.7531,-0.7555,-0.7635,-0.7641,-0.7599,-0.7603,-0.7605,-0.7607,0,0,0,0,0,0,0,-0.7189,-0.7203,-0.7338,-0.7323,-0.7329,-0.734,-0.7353,-0.7408,-0.7467,-0.7411,-0.7414,-0.7427,-0.7524,-0.7549,-0.7558,-0.7643,-0.7599,-0.7604,-0.7608,-0.761,-0.7769,-0.777,0,0,0,0,0,0,-0.7176,-0.7197,-0.7334,-0.7341,-0.726,-0.7344,-0.7358,-0.7389,-0.7466,-0.7477,-0.7428,-0.7429,-0.754,-0.7551,-0.7562,-0.7624,-0.7605,-0.761,-0.7613,-0.7769,-0.777,-0.7771,0,0,0,0,0,0,-0.7172,-0.7188,-0.7329,-0.727,-0.7289,-0.7348,-0.7382,-0.7391,-0.7417,-0.7479,-0.749,-0.7442,-0.754,-0.7555,-0.7613,-0.7629,-0.7613,-0.7618,-0.7767,-0.7769,-0.777,-0.7747,0,0,0,0,0,0,-0.7166,-0.7186,-0.7204,-0.727,-0.7292,-0.7376,-0.7383,-0.7394,-0.7426,-0.7428,-0.7496,-0.7506,-0.7541,-0.7604,-0.7618,-0.7636,-0.7622,-0.7766,-0.7768,-0.777,-0.7746,-0.7747,-0.7748,0,0,0,0,0,-0.7159,-0.7193,-0.7204,-0.7221,-0.7316,-0.7377,-0.739,-0.7428,-0.7427,-0.7446,-0.7486,-0.7504,-0.7625,-0.761,-0.7626,-0.7646,-0.7765,-0.7768,-0.777,-0.7746,-0.7747,-0.7748,0,0,0,0,0,0,-0.7128,-0.7202,-0.7216,-0.7272,-0.7318,-0.7384,-0.7409,-0.7428,-0.7476,-0.7476,-0.7522,-0.7537,-0.7592,-0.7625,-0.7607,-0.7697,-0.7696,-0.7702,-0.7673,-0.7674,-0.7675,-0.7666,-0.7627,0,0,0,0,0,-0.7127,-0.717,-0.7233,-0.7277,-0.7299,-0.735,-0.7378,-0.7404,-0.7454,-0.7473,-0.7518,-0.7567,-0.7616,-0.7647,-0.7695,-0.7752,-0.7767,-0.7773,-0.7774,-0.7774,-0.7778,-0.7811,-0.7815,-0.7777,-0.7777,-0.7777,0,0,-0.7126,-0.7173,-0.7197,-0.7271,-0.731,-0.7354,-0.7366,-0.7412,-0.7446,-0.7481,-0.7538,-0.7573,-0.763,-0.7687,-0.7715,-0.7716,-0.7792,-0.7777,-0.7777,-0.7781,-0.7814,-0.7817,-0.782,-0.7779,-0.7779,-0.7778,0,0,-0.7148,-0.7187,-0.7227,-0.7266,-0.7324,-0.7358,-0.7367,-0.7431,-0.7455,-0.7513,-0.754,-0.7582,-0.7665,-0.7705,-0.7736,-0.7773,-0.7792,-0.7788,-0.7792,-0.7823,-0.7826,-0.7829,-0.7843,-0.7847,-0.7792,-0.7792,-0.7792,0,-0.714,-0.7207,-0.7246,-0.7291,-0.7323,-0.7356,-0.7398,-0.7434,-0.7505,-0.7527,-0.7528,-0.7633,-0.7674,-0.7742,-0.7751,-0.7775,-0.7788,-0.778,-0.7822,-0.7826,-0.7829,-0.7843,-0.7848,-0.7791,-0.7791,-0.7791,-0.7791,0,-0.7195,-0.7241,-0.7267,-0.7334,-0.7369,-0.7412,-0.7459,-0.749,-0.7513,-0.7547,-0.7606,-0.7657,-0.7716,-0.7734,-0.7757,-0.7805,-0.7805,-0.7813,-0.7814,-0.7831,-0.7845,-0.785,-0.779,-0.779,-0.779,-0.779,0,0,-0.7199,-0.7287,-0.7296,-0.7327,-0.7394,-0.7431,-0.7476,-0.7533,-0.756,-0.7608,-0.7648,-0.7718,-0.7726,-0.7762,-0.7789,-0.7817,-0.7844,-0.7823,-0.7825,-0.7825,-0.7901,-0.7894,-0.7899,-0.7857,-0.7858,-0.7859,-0.7896,0,-0.723,-0.731,-0.7347,-0.7412,-0.7456,-0.7488,-0.7528,-0.7573,-0.7607,-0.7649,-0.7687,-0.7736,-0.7743,-0.7765,-0.7793,-0.7834,-0.786,-0.7832,-0.7895,-0.7897,-0.788,-0.7907,-0.7899,-0.7932,-0.7902,-0.7903,-0.7904,0,-0.7276,-0.7323,-0.7392,-0.7454,-0.7473,-0.7508,-0.7564,-0.7604,-0.7657,-0.768,-0.7719,-0.7746,-0.7796,-0.7793,-0.7863,-0.7844,-0.7872,-0.7896,-0.7898,-0.7906,-0.7901,-0.7915,-0.7944,-0.7949,-0.7912,-0.7912,-0.7911,0,-0.7272,-0.7353,-0.7405,-0.7431,-0.7504,-0.7528,-0.756,-0.7612,-0.7645,-0.7694,-0.7716,-0.777,-0.78,-0.7843,-0.7884,-0.7878,-0.7951,-0.7951,-0.7972,-0.797,-0.7985,-0.7984,-0.8019,-0.8003,-0.8003,-0.8003,-0.8003,0,-0.7302,-0.7343,-0.7405,-0.7437,-0.7484,-0.7526,-0.7573,-0.7607,-0.7653,-0.7694,-0.7725,-0.7762,-0.7814,-0.7859,-0.7892,-0.7945,-0.7958,-0.7979,-0.7987,-0.7976,-0.7973,-0.7995,-0.7994,-0.8004,-0.8004,-0.8004,-0.8003,0,-0.7307,-0.7349,-0.7408,-0.7472,-0.749,-0.7522,-0.7578,-0.761,-0.7645,-0.7696,-0.771,-0.7765,-0.7819,-0.7864,-0.7935,-0.7957,-0.8013,-0.8023,-0.7995,-0.7999,-0.8017,-0.8015,-0.8068,-0.8077,-0.8054,-0.8054,-0.8054,0,-0.7323,-0.7355,-0.7423,-0.7451,-0.7482,-0.7528,-0.7561,-0.7605,-0.7638,-0.7701,-0.7727,-0.7782,-0.7829,-0.7914,-0.7961,-0.8016,-0.8027,-0.8042,-0.8036,-0.8024,-0.8028,-0.8026,-0.803,-0.8043,-0.8043,-0.8043,-0.8043,0,-0.7348,-0.7367,-0.7413,-0.7466,-0.7504,-0.7548,-0.7594,-0.7615,-0.7668,-0.7704,-0.7758,-0.7795,-0.7867,-0.7922,-0.7982,-0.8017,-0.8039,-0.8044,-0.8052,-0.8041,-0.8023,-0.8034,-0.7996,-0.8043,-0.8043,-0.8043,-0.8043,-0.8043,-0.7359,-0.7389,-0.7441,-0.7491,-0.753,-0.7571,-0.7605,-0.7644,-0.769,-0.7752,-0.7775,-0.7831,-0.7885,-0.7967,-0.8002,-0.8047,-0.805,-0.8061,-0.8064,-0.8066,-0.8065,-0.8016,-0.8058,-0.8059,-0.8059,-0.8059,-0.8059,0,-0.7386,-0.7421,-0.7466,-0.7528,-0.7568,-0.7584,-0.7635,-0.7667,-0.7716,-0.7763,-0.7809,-0.7872,-0.7926,-0.7978,-0.8034,-0.8061,-0.8073,-0.8075,-0.8073,-0.8081,-0.8059,-0.8046,-0.8064,-0.8064,-0.8064,-0.8064,-0.8064,-0.8064,-0.7404,-0.7456,-0.7482,-0.7554,-0.7589,-0.7643,-0.7671,-0.771,-0.7748,-0.7817,-0.7862,-0.7895,-0.7944,-0.8005,-0.8056,-0.807,-0.809,-0.8089,-0.8105,-0.8084,-0.8083,-0.8081,-0.807,-0.8093,-0.8093,-0.8124,-0.8124,-0.8125]}]]